Zurück zum Katalog

STARLINK-31715

AktivKommunikationVLEO
NORAD 59384·PAYLOAD·🇺🇸 United States

Gestartet Apr 2, 2024 von Vandenberg Space Force Base

Loading…

Nächste Überflüge (nächste 24 Stunden)

TLE

AktuellSource: CelesTrak SupGP

Epoche: Sep 14, 2026, 22:15 UTC

1 59384C 24062L   26257.92756944 -.00002389  00000+0 -70607-4 0  2575
2 59384  53.1567  93.8258 0001309  90.6912 310.2022 15.34383600    17

Verfolge STARLINK-31715 in Echtzeit mit AllMySat

Download on the App Store